Regional Weather Roundup
Issued by NWS

Home | Current Version | Previous Version | Text Only | Print | Product List | Glossary On
Versions: 1 2 3 4 5 6 7 8 9 10 11 12 13 14 15 16 17 18 19 20 21 22 23 24 25 26 27
000
ASUS44 KLIX 192313
RWRLA
LOUISIANA WEATHER ROUNDUP
NATIONAL WEATHER SERVICE NEW ORLEANS LA
600 PM CDT THU OCT 19 2017

NOTE: "FAIR" INDICATES FEW OR NO CLOUDS BELOW 12,000 FEET WITH NO
      SIGNIFICANT WEATHER AND/OR OBSTRUCTIONS TO VISIBILITY.
      SKY/WX - SKY CONDITION AND SIGNIFICANT WEATHER.
      TMP - AIR TEMPERATURE.    DP   - DEWPOINT TEMPERATURE.
      RH  - RELATIVE HUMIDITY.  PRES - PRESSURE.
      HX  - HEAT INDEX.         WCI  - WIND CHILL INDEX.

*  THESE STATIONS ARE NOT NWS OR FAA STATIONS AND ARE NOT UNDER
   NWS QUALITY CONTROL.

LAZ040-048-061>063-065-066-069-200000-
SOUTHEAST LOUISIANA

CITY           SKY/WX    TMP DP  RH WIND       PRES   REMARKS
N.O. INTL ARPT MOCLDY    78  65  63 E12       30.12S
N.O. LAKEFRONT CLEAR     77  67  71 E13       30.13S
N.O. DOWNTOWN* FAIR      78  64  61 E6        30.14R
RESERVE*       FAIR      80  64  59 E6        30.12S
SLIDELL        MOCLDY    77  65  66 SE8       30.13R
BATON ROUGE    PTCLDY    79  63  57 E6        30.11S
BOOTHVILLE     PTCLDY    81  70  69 E14G20    30.12S
BELLE CHASSE   MOCLDY    80  66  61 E17       30.11F
BOGALUSA*      FAIR      78  61  56 NE3       30.15S
GALLIANO*      PTCLDY    77  67  70 E7        30.12R
NEW ROADS*     FAIR      77  63  63 NE5       30.12S
GONZALES*      FAIR      80  63  56 E5        30.11S
HAMMOND*       CLOUDY    77  64  65 S5        30.13R
HOUMA*         PTCLDY    77  75  94 E10       30.12R
PORT FOURCHON* NOT AVBL

$$

LAZ041-044-053-054-200000-
SOUTHWEST LOUISIANA

CITY           SKY/WX    TMP DP  RH WIND       PRES   REMARKS
LAKE CHARLES   CLOUDY    80  61  52 NE8       30.09S
LAFAYETTE      CLEAR     79  64  60 NE3       30.10S
PATTERSON      MOCLDY    79  67  66 E9        30.10S
SALT POINT       N/A     80  67  64 E5        30.08R
NEW IBERIA     CLEAR     80  62  54 E7        30.10S
CHENAULT AIRPK CLEAR     79  61  53 NE6       30.10S

$$

LAZ027-028-200000-
CENTRAL LOUISIANA

CITY           SKY/WX    TMP DP  RH WIND       PRES   REMARKS
FORT POLK      CLEAR     75  56  51 NE3       30.11S
ALEXANDRIA INT CLEAR     78  51  38 E7        30.11S
ALEXANDRIA     CLEAR     77  56  48 E6        30.13S

$$

LAZ001-002-200000-
NORTHWEST LOUISIANA

CITY           SKY/WX    TMP DP  RH WIND       PRES   REMARKS
SHREVEPORT     MOCLDY    77  55  46 E9        30.11S
BARKSDALE AFB  PTCLDY    77  56  47 SE8       30.11F
DTN SHREVEPORT PTCLDY    78  57  48 E7        30.12S

$$

LAZ014-016-200000-
NORTHEAST LOUISIANA

CITY           SKY/WX    TMP DP  RH WIND       PRES   REMARKS
MONROE         PTCLDY    76  54  46 VRB3      30.15S
TALLULAH       CLOUDY    76  56  49 E6        30.15S

$$





USA.gov is the U.S. government's official web portal to all federal, state and local government web resources and services.